Regional Weather Roundup
Issued by NWS New Orleans/Baton Rouge, LA

Home | Current Version | Previous Version | Text Only | Print | Product List | Glossary On
Versions: 1 2 3 4 5 6 7 8 9 10 11 12 13 14 15 16 17 18 19 20 21 22 23 24 25 26 27 28 29 30 31 32 33 34 35 36 37 38 39 40 41 42 43 44 45 46 47 48 49 50
000
ASUS44 KLIX 010911
RWRLIX
NEW ORLEANS REGIONAL WEATHER ROUNDUP
NATIONAL WEATHER SERVICE NEW ORLEANS LA
400 AM CDT WED APR 01 2015

NOTE: "FAIR" INDICATES FEW OR NO CLOUDS BELOW 12,000 FEET WITH NO
      SIGNIFICANT WEATHER AND/OR OBSTRUCTIONS TO VISIBILITY.
      SKY/WX - SKY CONDITION AND SIGNIFICANT WEATHER.
      TMP - AIR TEMPERATURE.     DP    - DEWPOINT TEMPERATURE.
      RH  - RELATIVE HUMIDITY.   PRES  - PRESSURE.
      HI  - HEAT INDEX.          WCI   - WIND CHILL INDEX.

*  THESE STATIONS ARE NOT NWS OR FAA STATIONS AND ARE NOT UNDER
   NWS QUALITY CONTROL.

LAZ038-040-048-061>063-065>067-069-011000-
SOUTHEAST LOUISIANA

CITY           SKY/WX    TMP DP  RH WIND       PRES   REMARKS
N.O. AUDUBON     N/A     65  65 100 MISG        N/A
N.O. INTL ARPT PTCLDY    64  61  90 S3        30.02S
N.O. LAKEFRONT CLEAR     67  62  84 S6        30.03S
SLIDELL        PTCLDY    60  59  96 CALM      30.02S
BATON ROUGE    CLEAR     65  63  93 W3        30.01R
BOOTHVILLE     PTCLDY    70  68  93 S6        30.03F
BELLE CHASSE   PTCLDY    59  57  93 CALM      30.02S
BOGALUSA*        N/A     58  56  91 CALM      30.03S FOG
GALLIANO*      PTSUNNY   57  56  99 CALM      30.02F
NEW ROADS*     FOG       63  62  97 CALM      30.02R VSB<1/4
GONZALES*        N/A     64  64 100 CALM      30.01R
HAMMOND*       PTCLDY    61  57  88 CALM      30.04R
HOUMA*         CLOUDY    58  58 100 CALM      30.01F FOG
PORT FOURCHON* SUNNY     72  66  83 CALM      30.05F

$$

MSZ070-080>082-011000-
SOUTHERN MISSISSIPPI

CITY           SKY/WX    TMP DP  RH WIND       PRES   REMARKS
MCCOMB         FOG       62  62 100 SW7       30.01F VSB 1/4
GULFPORT       CLEAR     63  60  90 CALM      30.02S
BILOXI         PTCLDY    67  64  89 W6        30.02S
PASCAGOULA     CLEAR     65  63  93 CALM      30.02S

$$

COASTAL OBSERVATIONS
LAKE AND NEARSHORE STATIONS

STATION/POSITION TIME  TEMP    WIND        PRES    WAVE
                       AIR SEA DIR/SP/G            HT/PER
                 (UTC) (F)     (DEG/KT/KT) (MB)    (FT/S)
PASCAGOULA       0800   69     230/ 11/ 14 1015.9
WAVELAND YACHT   0800   67 70  260/  3/  5 1016.4
GRAND ISLE       0800   69 72  220/  4/  5 1016.7
SOUTHWEST PASS   0800   67 55  210/  3/  4 1017.8
NEW CANAL        0800   67     200/  5/  7 1016.9
SHELL BEACH      0800   67 71  230/  4/  4 1016.7

OFFSHORE STATIONS

STATION/POSITION TIME  TEMP    WIND        PRES    WAVE
                       AIR SEA DIR/SP/G            HT/PER
                 (UTC) (F)     (DEG/KT/KT) (MB)    (FT/S)
64 S DAUPHIN ISL 0850   71 72  240/  8/ 10 1017.4    2/ 7

$$




USA.gov is the U.S. government's official web portal to all federal, state and local government web resources and services.